EN

Hourly Weather Kyzylyarovo

Today, 28 July, Wednesday

Time Temperature Precipitation Wind Pressure Humidity
00:00 +15°C° 0 mm 1 mps 750 mmHg 83%
01:00 +15°C° 0 mm 1 mps 750 mmHg 83%
02:00 +14°C° 0 mm 1 mps 750 mmHg 84%
03:00 +13°C° 0 mm 1 mps 750 mmHg 86%
04:00 +12°C° 0 mm 1 mps 750 mmHg 90%
05:00 +13°C° 0 mm 1 mps 750 mmHg 85%
06:00 +14°C° 0 mm 1 mps 750 mmHg 81%
07:00 +16°C° 0 mm 2 mps 750 mmHg 77%
08:00 +17°C° 0 mm 3 mps 751 mmHg 67%
09:00 +19°C° 0 mm 3 mps 751 mmHg 56%
10:00 +20°C° 0 mm 4 mps 751 mmHg 46%
11:00 +21°C° 0 mm 4 mps 751 mmHg 42%
12:00 +21°C° 0 mm 4 mps 750 mmHg 37%
13:00 +22°C° 0 mm 4 mps 750 mmHg 33%
14:00 +22°C° 0 mm 4 mps 750 mmHg 33%
15:00 +22°C° 0 mm 4 mps 750 mmHg 32%
16:00 +22°C° 0 mm 4 mps 750 mmHg 32%
17:00 +21°C° 0 mm 4 mps 750 mmHg 37%
18:00 +20°C° 0 mm 4 mps 750 mmHg 42%
19:00 +19°C° 0 mm 3 mps 751 mmHg 46%
20:00 +17°C° 0 mm 3 mps 751 mmHg 53%
21:00 +15°C° 0 mm 2 mps 751 mmHg 60%
22:00 +12°C° 0 mm 1 mps 751 mmHg 67%
23:00 +12°C° 0 mm 1 mps 751 mmHg 67%

Tomorrow, 29 July, Thursday

Time Temperature Precipitation Wind Pressure Humidity
00:00 +12°C° 0 mm 1 mps 751 mmHg 68%
01:00 +11°C° 0 mm 1 mps 751 mmHg 69%
02:00 +11°C° 0 mm 1 mps 751 mmHg 71%
03:00 +10°C° 0 mm 1 mps 751 mmHg 73%
04:00 +10°C° 0 mm 1 mps 751 mmHg 74%
05:00 +12°C° 0 mm 1 mps 751 mmHg 68%
06:00 +13°C° 0 mm 2 mps 752 mmHg 62%
07:00 +15°C° 0 mm 2 mps 752 mmHg 56%
08:00 +17°C° 0 mm 2 mps 751 mmHg 50%
09:00 +20°C° 0 mm 2 mps 751 mmHg 44%
10:00 +22°C° 0 mm 3 mps 751 mmHg 38%
11:00 +24°C° 0 mm 3 mps 751 mmHg 35%
12:00 +25°C° 0 mm 3 mps 750 mmHg 31%
13:00 +26°C° 0 mm 3 mps 750 mmHg 28%
14:00 +27°C° 0 mm 3 mps 750 mmHg 27%
15:00 +27°C° 0 mm 3 mps 749 mmHg 26%
16:00 +28°C° 0 mm 3 mps 749 mmHg 25%
17:00 +26°C° 0 mm 2 mps 749 mmHg 30%
18:00 +25°C° 0 mm 2 mps 748 mmHg 35%
19:00 +24°C° 0 mm 1 mps 748 mmHg 40%
20:00 +21°C° 0 mm 2 mps 748 mmHg 40%
21:00 +20°C° 0 mm 2 mps 748 mmHg 41%
22:00 +19°C° 0 mm 2 mps 748 mmHg 41%
23:00 +19°C° 0 mm 2 mps 748 mmHg 42%

Day after tomorrow, 30 July, Friday

Time Temperature Precipitation Wind Pressure Humidity
00:00 +19°C° 0 mm 2 mps 748 mmHg 43%
01:00 +19°C° 0 mm 2 mps 748 mmHg 44%
02:00 +18°C° 0 mm 2 mps 748 mmHg 49%
03:00 +18°C° 0 mm 2 mps 747 mmHg 54%
04:00 +18°C° 0 mm 3 mps 747 mmHg 59%
05:00 +18°C° 0 mm 3 mps 747 mmHg 68%
06:00 +18°C° 0 mm 4 mps 747 mmHg 77%
07:00 +18°C° 0 mm 4 mps 747 mmHg 86%
08:00 +19°C° 0.1 mm 5 mps 746 mmHg 83%
09:00 +19°C° 0.1 mm 5 mps 746 mmHg 80%
10:00 +20°C° 0.1 mm 6 mps 746 mmHg 77%
11:00 +22°C° 0.1 mm 6 mps 745 mmHg 69%
12:00 +24°C° 0.1 mm 6 mps 745 mmHg 62%
13:00 +27°C° 0.1 mm 6 mps 745 mmHg 54%
14:00 +27°C° 0.2 mm 6 mps 745 mmHg 55%
15:00 +27°C° 0.2 mm 6 mps 745 mmHg 56%
16:00 +27°C° 0.2 mm 5 mps 745 mmHg 57%
17:00 +27°C° 0.1 mm 5 mps 745 mmHg 60%
18:00 +26°C° 0.1 mm 4 mps 745 mmHg 62%
19:00 +25°C° 0.1 mm 3 mps 746 mmHg 65%
20:00 +24°C° 0 mm 2 mps 746 mmHg 71%
21:00 +21°C° 0 mm 2 mps 746 mmHg 76%
22:00 +21°C° 0 mm 1 mps 747 mmHg 82%
23:00 +20°C° 0 mm 1 mps 747 mmHg 83%

31 July, Saturday

Time Temperature Precipitation Wind Pressure Humidity
00:00 +19°C° 0 mm 2 mps 747 mmHg 84%
01:00 +18°C° 0 mm 2 mps 747 mmHg 86%
02:00 +18°C° 0 mm 2 mps 747 mmHg 87%
03:00 +18°C° 0 mm 2 mps 747 mmHg 88%
04:00 +17°C° 0 mm 2 mps 747 mmHg 89%
05:00 +19°C° 0 mm 2 mps 748 mmHg 84%
06:00 +20°C° 0 mm 2 mps 748 mmHg 79%
07:00 +21°C° 0 mm 2 mps 748 mmHg 74%
08:00 +24°C° 0 mm 2 mps 748 mmHg 68%
09:00 +25°C° 0 mm 3 mps 748 mmHg 61%
10:00 +27°C° 0 mm 3 mps 748 mmHg 55%
11:00 +28°C° 0 mm 2 mps 747 mmHg 52%
12:00 +29°C° 0 mm 2 mps 747 mmHg 48%
13:00 +30°C° 0 mm 2 mps 746 mmHg 45%
14:00 +30°C° 0.1 mm 2 mps 746 mmHg 46%
15:00 +30°C° 0.1 mm 2 mps 746 mmHg 48%
16:00 +30°C° 0.1 mm 2 mps 745 mmHg 49%
17:00 +27°C° 1.2 mm 2 mps 746 mmHg 63%
18:00 +25°C° 1.2 mm 2 mps 746 mmHg 76%
19:00 +23°C° 1.2 mm 2 mps 746 mmHg 90%
20:00 +21°C° 1.2 mm 3 mps 747 mmHg 90%
21:00 +21°C° 1.2 mm 3 mps 747 mmHg 90%
22:00 +21°C° 1.2 mm 3 mps 747 mmHg 90%
23:00 +20°C° 0.5 mm 3 mps 747 mmHg 91%

1 August, Sunday

Time Temperature Precipitation Wind Pressure Humidity
00:00 +20°C° 0.5 mm 3 mps 747 mmHg 93%
01:00 +19°C° 0.5 mm 3 mps 748 mmHg 94%
02:00 +19°C° 0.1 mm 2 mps 748 mmHg 95%
03:00 +18°C° 0.1 mm 2 mps 748 mmHg 95%
04:00 +18°C° 0.1 mm 2 mps 748 mmHg 95%
05:00 +19°C° 0 mm 2 mps 748 mmHg 94%
06:00 +19°C° 0 mm 2 mps 748 mmHg 92%
07:00 +20°C° 0 mm 2 mps 748 mmHg 91%
08:00 +21°C° 0.5 mm 2 mps 748 mmHg 85%
09:00 +24°C° 0.5 mm 3 mps 749 mmHg 80%
10:00 +25°C° 0.5 mm 3 mps 749 mmHg 74%
11:00 +27°C° 0.1 mm 3 mps 749 mmHg 59%
12:00 +29°C° 0.1 mm 4 mps 749 mmHg 45%
13:00 +32°C° 0.1 mm 4 mps 748 mmHg 30%
14:00 +33°C° 0 mm 4 mps 748 mmHg 30%
15:00 +33°C° 0 mm 5 mps 748 mmHg 30%
16:00 +33°C° 0 mm 5 mps 748 mmHg 30%
17:00 +32°C° 0 mm 4 mps 748 mmHg 35%
18:00 +29°C° 0 mm 3 mps 748 mmHg 40%
19:00 +27°C° 0 mm 2 mps 749 mmHg 45%
20:00 +25°C° 0 mm 2 mps 749 mmHg 49%
21:00 +24°C° 0 mm 1 mps 749 mmHg 53%
22:00 +22°C° 0 mm 1 mps 750 mmHg 57%
23:00 +21°C° 0 mm 1 mps 750 mmHg 60%

2 August, Monday

Time Temperature Precipitation Wind Pressure Humidity
00:00 +20°C° 0 mm 1 mps 750 mmHg 62%
01:00 +20°C° 0 mm 1 mps 750 mmHg 65%
02:00 +19°C° 0 mm 1 mps 750 mmHg 67%
03:00 +19°C° 0 mm 1 mps 750 mmHg 68%
04:00 +18°C° 0 mm 1 mps 751 mmHg 69%
05:00 +20°C° 0 mm 1 mps 751 mmHg 66%
06:00 +21°C° 0 mm 1 mps 751 mmHg 62%
07:00 +23°C° 0 mm 1 mps 751 mmHg 58%
08:00 +25°C° 0 mm 1 mps 751 mmHg 52%
09:00 +27°C° 0 mm 2 mps 751 mmHg 46%
10:00 +29°C° 0 mm 2 mps 751 mmHg 39%
11:00 +31°C° 0 mm 2 mps 751 mmHg 35%
12:00 +33°C° 0 mm 3 mps 751 mmHg 31%
13:00 +34°C° 0 mm 3 mps 750 mmHg 27%
14:00 +35°C° 0 mm 3 mps 750 mmHg 27%
15:00 +35°C° 0 mm 2 mps 750 mmHg 27%
16:00 +35°C° 0 mm 2 mps 750 mmHg 27%
17:00 +34°C° 0 mm 2 mps 750 mmHg 33%
18:00 +31°C° 0 mm 2 mps 750 mmHg 40%
19:00 +29°C° 0 mm 1 mps 750 mmHg 47%
20:00 +28°C° 0 mm 1 mps 750 mmHg 49%
21:00 +26°C° 0 mm 2 mps 750 mmHg 50%
22:00 +25°C° 0 mm 2 mps 750 mmHg 52%
23:00 +24°C° 0 mm 2 mps 750 mmHg 53%
Show more